Regional Weather Roundup
Issued by NWS

Home | Current Version | Previous Version | Text Only | Print | Product List | Glossary On
Versions: 1 2 3 4 5 6 7 8 9 10 11 12 13 14 15 16 17 18 19 20 21 22 23 24 25 26 27 28 29 30 31 32 33 34 35 36 37 38 39 40 41 42 43 44 45 46 47 48 49 50
000
ASUS43 KDMX 260801
RWRIA

WEATHER ROUNDUP FOR IOWA
NATIONAL WEATHER SERVICE DES MOINES IA
300 AM CDT WED JUL 26 2017

NOTE: "FAIR" INDICATES FEW OR NO CLOUDS BELOW 12,000 FEET WITH NO
SIGNIFICANT WEATHER AND/OR OBSTRUCTIONS TO VISIBILITY.

* - THESE STATIONS ARE NOT NWS STATIONS...THUS NOT UNDER NWS
QUALITY CONTROL.  THEY ALSO DO NOT REPORT WEATHER SUCH
AS PRECIPITATION OR FOG.

IAZ001>003-012>014-020>022-031>034-043>046-260900-
   NORTHWEST IOWA

CITY           SKY/WX    TMP DP  RH WIND       PRES   REMARKS
CARROLL *      CLOUDY    79  75  89 S10       29.97S HX  82
DENISON *      CLOUDY    79  75  89 S15       29.97S HX  82
ORANGE CITY *  LGT RAIN  75  72  88 CALM      30.00S
SHELDON *      LGT RAIN  73  68  83 N3        29.99R
SIOUX CITY     CLOUDY    78  72  81 N8        29.96S HX  80
SPENCER        CLOUDY    76  74  93 S7        29.99S
STORM LAKE *   CLOUDY    77  73  88 W5G12     30.01R
$$

IAZ055>058-069>071-079>083-090>094-260900-
   SOUTHWEST IOWA

CITY           SKY/WX    TMP DP  RH WIND       PRES   REMARKS
ATLANTIC *     CLOUDY    79  73  83 S8        29.98S HX  82
AUDUBON *      CLOUDY    77  73  88 S6        29.99F
CLARINDA *     CLOUDY    79  75  89 S7        30.00F HX  82
COUNCIL BLFS * CLOUDY    79  79 100 S12       29.95F HX  83
CRESTON *      CLOUDY    75  72  88 S9        30.02F
HARLAN  *      CLOUDY    77  75  94 S8        30.00S
LAMONI         CLOUDY    75  70  84 SE7       30.02F
RED OAK *      CLOUDY    79  75  89 S9        29.97F HX  82
SHENANDOAH *   MOCLDY    79  75  89 SE9       29.96F HX  82
$$

IAZ047>049-059>061-072>074-084-260900-
   CENTRAL IOWA

CITY           SKY/WX    TMP DP  RH WIND       PRES   REMARKS
AMES           CLOUDY    73  72  96 SE6       29.99F
ANKENY *       CLOUDY    75  70  83 S6        30.00F
BOONE *        CLOUDY    73  72  94 SE7       29.98F
CHARITON *     CLOUDY    75  68  78 S8        30.02F
DES MOINES     CLOUDY    78  71  79 SE6       29.99F HX  80
GRINNELL*      CLOUDY    71  66  85 S6        30.05S
KNOXVILLE *    CLOUDY    75  68  78 SE7       30.01F
MARSHALLTOWN   CLOUDY    71  68  90 SE6       30.02S
NEWTON *       CLOUDY    72  68  88 SE7       30.02F
PELLA *        CLOUDY    74  66  76 SE6       30.04S
PERRY *          N/A     75  74  96 S5        29.99F
$$

IAZ004>006-015-016-023>025-035-036-260900-
   NORTH CENTRAL IOWA

CITY           SKY/WX    TMP DP  RH WIND       PRES   REMARKS
ALGONA *       CLOUDY    79  75  89 S13G18    29.96F HX  82
CLARION *      MOCLDY    73  73 100 SE9       29.98F
ESTHERVILLE    CLOUDY    73  73 100 SW6       29.98S
FORT DODGE *   CLOUDY    79  72  78 S10       29.98F HX  82
MASON CITY     CLOUDY    73  70  90 S8        30.00F
FOREST CITY *    N/A     75  72  88 S7        29.98F
WEBSTER CITY * CLOUDY    75  72  88 SE8       29.96F
IOWA FALLS *     N/A     73  69  89 SE8       30.01F
$$

IAZ007>011-017>019-026>030-037>042-050>054-066-260900-
   NORTHEAST IOWA

CITY           SKY/WX    TMP DP  RH WIND       PRES   REMARKS
CHARLES CITY * CLOUDY    72  72 100 S7        30.02F
DECORAH *      CLOUDY    72  68  88 S7G15     30.02F
DUBUQUE        CLOUDY    68  66  93 S8        30.07F
MONTICELLO *   CLOUDY    70  68  94 SE6       30.06S
OELWEIN *      CLOUDY    72  70  94 S8        30.04F
WATERLOO       CLOUDY    72  68  87 S6        30.02
$$

IAZ064-065-067-068-078-260900-
   EAST CENTRAL IOWA

CITY           SKY/WX    TMP DP  RH WIND       PRES   REMARKS
DAVENPORT      PTCLDY    72  66  81 S9        30.09F
IOWA CITY      CLOUDY    72  69  90 SE7       30.06
MUSCATINE *    CLOUDY    72  68  88 SE5       30.07S
QUAD CITIES    CLOUDY    71  66  84 S10       30.06F
$$

IAZ062-063-075>077-085>089-095>099-260900-
   SOUTHEAST IOWA

CITY           SKY/WX    TMP DP  RH WIND       PRES   REMARKS
BURLINGTON     CLOUDY    73  70  90 SE8       30.06F
FAIRFIELD *    MOCLDY    73  68  83 SE7       30.04F
FORT MADISON * PTCLDY    73  70  88 S6        30.07F
KEOKUK *       PTCLDY    73  70  88 SE8       30.05F
OSKALOOSA *      N/A     72  67  86 S6        30.04F
OTTUMWA        PTCLDY    75  69  81 S8        30.03F
WASHINGTON *   PTCLDY    70  70 100 S6        30.07S
$$

ABBREVIATIONS USED IN REMARKS
   TC - TEMPERATURES IN CELSIUS
  WCI - WIND CHILL INDEX
   HX - HEAT INDEX
  VSB - VISIBILITY
$$





USA.gov is the U.S. government's official web portal to all federal, state and local government web resources and services.